STARLINK-36912

Last updated on Fri Mar 27 2026 00:02:06 GMT+0000 (Coordinated Universal Time)

1 67961U 26038A 26085.50002314 .00056212 00000+0 17315-2 0 9998 2 67961 97.2854 96.3103 0001130 105.3411 179.2941 15.33427572 5904
UTC large
Height (km)
Speed (km/s)
/
Latitude / Longitude
Inclination (degrees)
Orbital Period (minutes)
Azimuth
Elevation
Range (km)
Doppler Factor

Next 0 passes for location: London (51.5072 / 0.1276)

Sorry there are no passes over London.